Dewpoint
-15 -15 -15 -15 -15 -14 -14 -13 -13 -13 -13 -13 -13 -13 -12 -10 -8 -7 -8 -7 -5 -3 -2 -1 -0 0 -0 -1 -0 1 2 3 4 5 5 6 7 8 8 8 9 9 9 9 9 9 10 9 8 7 7 7
-15 -15 -15 -15 -15 -14 -14 -14 -13 -13 -13 -12 -12 -12 -13 -12 -10 -8 -8 -9 -8 -6 -5 -4 -3 -2 -1 -1 -1 -0 0 1 3 4 4 5 5 7 7 7 8 8 9 9 9 9 9 8 7 7 6 6
-16 -15 -16 -16 -16 -16 -15 -15 -15 -14 -14 -13 -12 -12 -12 -12 -12 -10 -8 -9 -9 -8 -7 -7 -6 -5 -4 -2 -1 -1 0 0 0 2 2 3 4 5 6 6 7 8 8 9 9 9 9 9 8 7 6 6
-18 -17 -17 -17 -17 -18 -18 -18 -17 -17 -16 -15 -14 -13 -12 -12 -12 -12 -10 -9 -9 -9 -8 -8 -8 -8 -7 -6 -4 -2 -0 0 -0 -0 1 2 2 3 5 6 6 7 7 8 9 9 9 8 8 8 7 6
-21 -21 -20 -20 -20 -20 -20 -20 -19 -19 -18 -17 -17 -16 -15 -13 -12 -12 -12 -10 -9 -10 -10 -9 -9 -9 -9 -9 -8 -6 -3 -1 -0 -1 -1 1 1 2 3 4 5 6 6 7 8 8 9 8 8 8 8 6
-24 -24 -23 -23 -22 -22 -22 -21 -21 -21 -20 -20 -19 -19 -18 -16 -14 -13 -12 -12 -11 -10 -11 -10 -10 -10 -10 -10 -10 -9 -7 -4 -2 -1 -1 -0 0 0 1 3 4 4 5 5 6 7 7 8 8 7 7 6
-25 -24 -23 -22 -22 -22 -22 -22 -22 -22 -21 -22 -21 -22 -22 -21 -20 -17 -14 -13 -13 -12 -12 -12 -11 -10 -10 -11 -11 -11 -10 -9 -6 -4 -3 -1 -0 0 1 1 2 3 4 4 5 6 7 7 8 7 6 6
-25 -23 -21 -20 -20 -21 -21 -21 -21 -22 -22 -23 -23 -24 -24 -25 -24 -22 -20 -17 -15 -15 -13 -13 -13 -11 -11 -11 -12 -12 -11 -11 -10 -9 -7 -4 -2 -1 0 1 1 1 2 3 3 4 6 7 7 6 7 7
-24 -23 -21 -20 -20 -20 -20 -21 -22 -22 -22 -23 -24 -24 -24 -24 -24 -24 -24 -21 -20 -18 -16 -15 -14 -14 -12 -11 -12 -12 -12 -12 -12 -12 -12 -10 -7 -4 -1 0 1 1 0 1 2 3 4 5 6 6 7 6
-22 -21 -21 -21 -20 -20 -21 -21 -22 -21 -22 -22 -23 -24 -23 -23 -23 -23 -23 -23 -22 -21 -21 -19 -17 -15 -14 -13 -13 -13 -13 -13 -14 -14 -14 -15 -13 -9 -5 -2 -0 1 -0 -1 0 1 2 3 4 5 6 6
-20 -19 -19 -20 -20 -20 -20 -20 -20 -20 -21 -21 -22 -23 -23 -22 -22 -22 -22 -22 -22 -22 -22 -21 -20 -18 -17 -15 -14 -14 -14 -14 -15 -15 -14 -15 -17 -15 -10 -5 -3 -1 -0 -1 -1 -0 0 1 2 4 5 5
-19 -19 -19 -19 -19 -20 -20 -20 -20 -20 -20 -20 -21 -22 -22 -21 -20 -21 -21 -22 -21 -21 -21 -21 -21 -20 -19 -18 -17 -16 -15 -15 -15 -16 -15 -15 -16 -18 -16 -10 -6 -4 -2 -1 -1 -0 -0 0 1 2 3 4
-19 -19 -19 -19 -19 -19 -19 -20 -20 -20 -20 -20 -20 -22 -22 -20 -20 -20 -20 -20 -21 -21 -21 -21 -21 -21 -21 -20 -19 -18 -17 -17 -16 -16 -16 -16 -15 -17 -19 -17 -12 -8 -5 -4 -3 -1 -0 -0 0 1 2 3
-19 -19 -19 -19 -19 -19 -19 -19 -20 -20 -20 -20 -20 -21 -22 -20 -19 -19 -19 -18 -19 -20 -21 -21 -21 -21 -21 -21 -21 -20 -19 -18 -17 -17 -17 -17 -16 -16 -17 -19 -18 -15 -10 -7 -6 -4 -2 -1 -0 0 1 2
-19 -20 -20 -20 -20 -20 -20 -20 -20 -20 -19 -20 -20 -21 -21 -20 -18 -18 -18 -17 -18 -18 -20 -21 -21 -21 -22 -22 -22 -21 -21 -20 -19 -19 -18 -18 -17 -17 -17 -17 -19 -20 -18 -13 -10 -8 -5 -3 -1 -0 1 1
-20 -20 -20 -20 -21 -21 -21 -21 -20 -20 -19 -19 -20 -20 -21 -20 -19 -17 -17 -17 -17 -18 -18 -19 -20 -21 -22 -22 -22 -22 -22 -21 -21 -20 -20 -20 -19 -19 -18 -18 -19 -20 -21 -21 -17 -13 -9 -7 -4 -2 -0 1
-20 -20 -21 -21 -21 -21 -21 -20 -20 -20 -20 -19 -19 -19 -20 -20 -19 -17 -17 -17 -17 -18 -18 -18 -19 -20 -21 -22 -22 -23 -23 -23 -22 -21 -21 -21 -20 -20 -19 -18 -18 -19 -20 -21 -22 -19 -15 -11 -8 -4 -2 -1
-20 -21 -21 -21 -21 -21 -20 -20 -19 -20 -20 -20 -19 -18 -19 -19 -18 -17 -17 -18 -18 -18 -18 -18 -18 -18 -19 -20 -21 -22 -24 -24 -24 -23 -22 -21 -21 -20 -20 -19 -18 -18 -19 -19 -21 -22 -20 -15 -12 -9 -5 -3
-21 -21 -21 -21 -20 -20 -20 -20 -20 -20 -21 -20 -19 -18 -18 -18 -17 -17 -17 -18 -18 -18 -18 -17 -18 -18 -18 -18 -19 -20 -22 -24 -26 -26 -25 -23 -22 -21 -21 -20 -19 -18 -18 -18 -19 -20 -21 -20 -16 -12 -9 -7
-22 -21 -21 -20 -19 -20 -20 -21 -21 -21 -21 -20 -18 -17 -17 -17 -17 -17 -17 -17 -17 -17 -17 -17 -17 -17 -18 -18 -18 -19 -20 -22 -24 -26 -26 -25 -24 -23 -22 -21 -20 -19 -18 -18 -18 -18 -20 -22 -21 -17 -13 -10
-21 -20 -20 -20 -20 -20 -21 -21 -22 -22 -21 -19 -18 -16 -16 -16 -17 -17 -17 -17 -17 -17 -17 -17 -17 -17 -17 -17 -18 -18 -19 -20 -21 -23 -24 -25 -25 -24 -23 -23 -22 -21 -20 -19 -18 -18 -18 -19 -21 -21 -18 -13
-20 -20 -20 -21 -21 -21 -21 -21 -22 -22 -21 -20 -19 -17 -16 -16 -16 -16 -16 -17 -16 -17 -17 -17 -17 -17 -17 -17 -17 -18 -18 -18 -19 -21 -22 -22 -23 -24 -24 -24 -23 -23 -22 -21 -19 -18 -18 -18 -19 -21 -21 -19
-21 -21 -21 -21 -22 -22 -21 -22 -22 -22 -22 -22 -21 -19 -19 -18 -17 -16 -16 -16 -16 -16 -16 -16 -17 -17 -17 -17 -17 -17 -17 -18 -18 -19 -20 -20 -21 -22 -23 -24 -24 -23 -24 -24 -22 -20 -18 -18 -18 -19 -20 -21
-21 -22 -22 -21 -21 -21 -22 -22 -22 -23 -22 -23 -22 -22 -21 -20 -19 -18 -16 -16 -16 -16 -16 -16 -16 -16 -16 -16 -17 -17 -17 -17 -18 -18 -19 -19 -20 -20 -22 -23 -23 -24 -25 -25 -24 -23 -20 -19 -18 -19 -19 -20
-22 -22 -21 -21 -22 -22 -22 -22 -23 -23 -23 -23 -23 -22 -22 -21 -20 -19 -18 -17 -16 -16 -16 -16 -16 -16 -16 -16 -16 -16 -17 -17 -17 -18 -18 -18 -18 -19 -21 -23 -23 -23 -24 -25 -25 -24 -22 -20 -19 -19 -19 -19
-22 -21 -22 -22 -22 -23 -23 -23 -23 -23 -23 -23 -23 -22 -21 -21 -20 -20 -20 -18 -17 -17 -16 -16 -16 -16 -16 -16 -16 -16 -16 -16 -17 -17 -17 -18 -19 -20 -22 -22 -22 -23 -23 -24 -24 -23 -23 -22 -21 -20 -20 -19
-22 -22 -22 -22 -22 -23 -23 -23 -23 -23 -23 -23 -23 -22 -21 -21 -20 -20 -20 -20 -19 -19 -18 -17 -17 -16 -16 -16 -16 -16 -16 -17 -17 -18 -19 -20 -21 -21 -22 -22 -22 -22 -22 -23 -23 -23 -22 -20 -19 -19 -19 -18
-21 -22 -22 -22 -22 -23 -23 -23 -23 -23 -23 -23 -23 -22 -22 -21 -20 -20 -20 -20 -20 -20 -20 -19 -19 -19 -18 -18 -18 -18 -19 -19 -20 -21 -22 -22 -22 -22 -22 -22 -22 -22 -22 -21 -22 -21 -19 -18 -18 -18 -18 -17
-21 -22 -22 -22 -22 -22 -23 -23 -23 -23 -23 -23 -23 -23 -23 -22 -22 -21 -21 -21 -21 -21 -21 -21 -21 -21 -21 -21 -22 -22 -22 -23 -23 -23 -23 -22 -22 -21 -20 -20 -20 -21 -21 -21 -21 -20 -19 -17 -16 -15 -15 -16
-21 -21 -21 -22 -22 -22 -23 -23 -23 -23 -23 -23 -23 -23 -23 -23 -23 -23 -22 -22 -22 -22 -22 -23 -23 -23 -23 -23 -23 -23 -23 -23 -23 -23 -23 -21 -20 -20 -19 -19 -19 -20 -21 -21 -20 -20 -20 -18 -15 -14 -14 -14
-21 -21 -21 -22 -22 -22 -23 -23 -23 -22 -22 -22 -22 -22 -22 -22 -22 -22 -23 -23 -23 -23 -23 -23 -23 -23 -23 -23 -22 -22 -22 -22 -23 -22 -22 -21 -20 -19 -18 -18 -18 -18 -19 -20 -20 -20 -20 -20 -19 -18 -16 -14
Wind_Speed
25 26 27 27 27 27 28 28 30 30 29 27 27 28 29 26 23 23 27 30 30 28 28 27 25 24 23 24 24 19 12 9 9 7 6 8 12 16 16 16 17 19 21 23 24 25 24 21 20 19 18 16
26 27 29 29 29 29 30 30 31 32 32 30 28 27 28 28 25 22 23 27 28 27 28 29 28 26 24 24 25 22 17 13 12 12 11 9 9 12 14 15 15 16 19 22 23 24 26 24 23 21 19 17
27 28 30 30 31 31 31 31 32 32 32 31 30 28 28 28 27 24 23 24 26 25 25 27 29 28 26 26 26 23 19 16 15 14 14 14 12 10 10 13 14 15 16 20 23 24 26 27 26 24 20 18
27 28 29 30 31 31 30 30 31 31 32 32 31 29 28 29 29 27 24 24 25 25 23 24 25 26 26 26 27 25 20 17 17 16 16 16 16 13 10 10 13 13 13 18 22 23 25 28 28 26 24 19
29 29 28 30 30 31 31 30 30 30 31 32 32 30 29 28 29 29 27 25 25 26 24 23 24 24 24 25 26 27 24 19 18 18 17 16 18 17 14 11 11 10 10 13 19 23 23 28 30 29 27 22
30 30 29 28 29 29 30 30 29 29 29 30 31 31 30 29 28 28 28 27 26 27 27 24 23 23 23 23 23 25 25 23 21 20 19 17 18 19 17 15 13 11 10 8 13 19 19 25 32 30 27 24
29 28 28 27 27 27 28 28 28 28 28 28 29 30 30 29 28 27 27 27 27 27 28 27 25 23 23 22 21 21 21 23 22 23 22 19 19 20 19 19 17 14 11 8 8 12 15 23 31 30 28 26
29 27 26 26 26 27 27 27 27 27 27 27 28 28 29 28 28 28 27 27 27 26 28 29 27 25 24 23 22 20 19 18 19 21 22 22 21 21 20 20 20 18 14 11 9 7 11 20 27 29 30 29
31 29 26 25 26 27 27 28 28 28 28 28 29 28 28 27 27 28 28 27 27 27 26 28 29 27 25 25 23 22 20 18 17 17 18 20 21 22 21 20 20 21 19 14 11 9 7 12 20 27 31 30
31 28 27 27 28 29 29 30 31 30 30 30 31 31 29 27 26 26 27 27 27 27 26 26 27 28 26 26 25 23 22 20 18 17 16 16 17 19 21 21 21 21 22 18 14 12 10 7 11 20 28 31
29 26 27 28 29 31 31 32 32 31 31 31 32 33 31 29 27 26 26 26 27 27 26 26 26 27 27 26 26 25 23 21 19 18 17 16 15 15 17 20 23 23 22 21 18 15 14 12 8 11 19 26
27 26 26 27 29 30 30 31 31 30 31 31 32 33 31 29 28 27 26 25 25 26 26 26 25 25 26 26 26 25 24 22 21 19 18 18 16 14 14 15 20 24 24 23 21 18 16 15 13 11 12 18
26 25 26 27 28 28 29 30 30 30 31 32 32 32 30 28 28 28 27 26 25 25 25 25 25 25 25 25 25 25 25 24 22 21 19 19 18 17 14 13 15 20 23 24 24 22 19 18 17 15 14 13
25 25 27 28 28 28 29 30 31 31 32 32 32 32 29 25 26 27 27 27 27 27 26 25 24 24 24 24 24 25 24 24 24 22 21 20 19 19 17 15 14 15 18 22 24 24 22 20 19 18 18 17
26 27 28 29 29 30 31 32 32 32 32 32 31 30 28 24 22 24 25 26 27 28 27 26 25 24 24 24 24 25 24 23 23 23 22 22 21 21 19 18 17 16 15 17 21 23 24 23 22 20 21 22
28 30 30 32 33 34 35 33 31 31 30 31 29 28 27 24 21 21 22 23 25 26 27 27 27 26 25 25 25 25 25 24 23 23 22 23 22 22 21 20 19 19 17 17 18 20 22 23 24 23 22 23
31 32 34 35 36 37 36 33 30 29 29 29 28 26 24 23 21 19 19 21 23 23 24 26 27 28 27 27 26 26 26 25 24 24 23 23 23 23 23 22 21 21 20 19 18 19 20 21 22 24 24 24
34 35 36 37 38 37 35 33 32 30 30 28 26 25 23 22 20 19 19 22 24 23 23 24 26 28 29 29 28 27 27 26 26 25 25 24 25 25 25 24 23 22 23 22 21 20 20 20 21 22 24 25
36 37 38 38 37 36 35 34 33 31 30 28 25 23 22 20 18 19 21 23 24 22 22 23 24 26 28 30 30 30 29 28 28 27 26 26 26 26 26 26 25 24 24 24 24 23 21 21 21 21 22 24
38 38 38 37 36 35 35 34 32 28 26 25 23 20 19 18 18 18 20 21 21 22 22 22 23 25 27 29 30 32 32 31 30 29 28 28 28 28 27 27 27 27 26 26 26 26 25 22 22 22 22 23
37 37 37 37 36 36 35 33 29 25 24 23 22 19 17 18 19 19 18 19 20 21 22 23 24 25 26 28 30 32 33 33 33 32 32 31 30 29 29 29 29 29 29 29 28 28 27 25 24 24 23 22
35 36 37 37 37 36 34 31 28 26 24 23 23 22 21 22 22 20 19 19 19 20 22 23 24 25 27 28 29 31 32 34 34 34 34 34 32 31 31 30 30 30 31 32 32 30 29 28 27 25 25 24
35 36 37 37 37 36 33 31 29 27 25 23 24 26 27 29 28 24 22 21 21 21 22 24 25 26 27 29 30 31 33 34 35 36 36 36 35 33 33 32 31 31 32 33 34 33 32 31 30 28 26 26
36 37 37 37 36 35 34 33 30 27 25 23 23 25 28 30 30 28 26 25 23 23 24 25 26 27 28 29 30 31 33 34 35 36 37 38 38 37 36 35 33 32 32 34 35 36 34 32 32 31 29 27
37 37 36 35 34 33 33 31 30 27 24 23 21 22 24 27 28 29 29 28 27 25 25 26 27 28 29 30 31 32 34 34 36 37 38 39 40 40 39 37 35 32 32 33 35 36 37 35 32 31 30 28
35 33 32 31 30 29 29 28 27 25 22 21 21 19 21 24 26 28 29 30 29 28 28 29 29 30 31 32 33 34 35 36 37 38 39 40 40 40 38 36 34 32 30 29 29 31 35 35 32 30 27 24
31 30 28 28 27 26 26 25 23 22 21 20 20 20 20 22 24 25 27 28 29 30 31 31 32 32 33 35 36 37 38 39 39 40 39 38 37 36 35 33 32 29 26 24 24 24 25 26 26 27 26 22
28 27 26 26 26 24 23 22 20 19 19 17 17 18 19 22 24 25 25 26 28 30 31 32 33 34 35 36 37 38 39 38 37 36 35 33 31 31 30 30 30 27 24 22 21 18 16 17 17 19 22 23
26 25 26 26 26 23 21 19 17 17 17 15 14 14 15 17 20 22 23 24 25 28 30 31 32 33 34 35 35 34 33 32 31 29 27 26 25 24 24 26 27 27 26 23 19 16 16 13 10 13 19 24
26 25 25 27 27 24 21 18 16 16 16 15 14 13 13 13 13 15 17 19 20 23 25 27 28 29 29 29 28 28 27 26 25 24 23 21 20 19 19 21 24 26 26 25 22 20 19 15 12 16 19 20
26 25 25 26 26 24 21 19 16 15 15 15 14 13 13 12 12 12 13 14 15 17 19 21 22 23 24 24 24 24 24 24 22 22 21 19 18 18 17 18 21 23 23 24 25 23 22 21 19 20 19 17
Wind_Direction
320 321 322 322 323 323 323 325 327 327 329 331 334 335 337 331 325 329 335 330 322 321 318 311 305 303 315 328 333 332 330 322 311 297 267 230 216 211 209 211 217 220 220 220 219 221 220 213 215 223 225 225
319 320 321 320 320 320 319 319 320 321 322 323 325 326 330 332 327 321 327 334 330 327 327 324 320 313 308 311 319 325 330 328 314 303 294 283 253 227 217 215 217 218 218 218 218 219 219 212 206 211 214 216
317 317 317 318 317 317 316 316 315 316 318 319 319 318 319 323 325 322 316 323 329 329 331 331 329 327 320 312 311 313 317 323 321 310 300 297 291 268 238 224 221 221 219 217 218 218 220 214 206 206 207 209
316 314 313 313 313 313 313 312 313 312 314 316 317 316 313 313 316 319 315 312 319 323 326 330 331 331 329 324 317 310 304 306 315 316 307 297 294 289 270 241 227 227 224 220 220 220 220 215 206 205 204 204
315 314 311 309 308 308 310 309 309 309 310 311 314 315 313 310 308 310 314 311 310 314 318 321 326 327 327 329 325 319 310 299 299 307 309 300 294 292 283 265 248 239 233 226 220 220 220 212 208 208 203 200
313 313 311 309 307 306 307 307 307 307 308 309 310 314 314 312 308 305 307 309 307 307 311 312 315 319 323 326 326 325 321 312 300 297 302 297 293 295 290 281 273 261 250 241 221 221 218 207 207 208 201 198
313 312 312 312 311 309 309 308 308 308 309 310 310 312 314 314 311 307 302 302 304 303 304 306 308 310 314 319 321 321 322 320 313 305 301 294 290 293 292 286 285 283 271 267 244 224 211 206 208 206 201 199
319 316 315 317 317 315 315 313 312 314 314 314 313 313 315 315 313 310 305 300 298 298 297 299 303 304 304 308 311 313 313 314 316 313 308 301 293 290 290 286 284 289 287 280 278 251 205 204 207 205 203 201
323 321 318 319 320 319 318 318 319 321 321 320 318 316 316 317 317 312 308 304 298 296 294 294 297 300 300 300 302 305 306 306 306 309 312 309 302 294 288 285 282 285 291 290 283 278 244 207 205 205 205 203
322 319 316 317 317 317 318 320 323 324 324 324 322 320 318 318 320 317 311 309 305 300 296 293 292 296 298 298 298 299 301 303 302 301 305 310 310 302 292 286 283 281 287 295 293 284 277 256 216 206 205 204
318 315 313 314 315 315 316 318 321 321 321 323 324 321 318 318 320 320 317 313 310 307 303 299 294 293 295 295 296 296 297 299 300 300 299 301 306 306 297 287 284 282 284 289 292 289 283 280 263 224 209 205
315 314 311 311 313 313 313 314 316 316 316 318 320 320 317 317 319 321 320 316 314 312 309 307 302 297 295 294 293 293 295 295 296 297 296 295 296 298 296 287 281 281 283 284 283 282 281 281 277 263 235 214
312 311 310 310 312 312 311 312 313 312 312 313 315 315 313 314 318 320 320 318 317 315 312 310 307 303 299 297 294 291 291 292 292 293 293 292 290 291 291 287 279 276 279 284 284 280 277 277 276 271 263 243
308 308 308 310 311 311 310 310 311 309 308 309 311 310 307 309 316 318 318 318 318 316 314 312 309 306 303 301 298 293 290 290 290 290 290 289 288 288 286 285 283 277 273 277 283 283 279 275 274 270 264 259
303 304 305 307 308 309 309 308 307 306 305 305 307 306 300 301 311 314 313 315 316 315 313 312 312 310 306 303 300 297 295 293 291 290 289 289 288 287 286 285 283 283 276 272 275 279 280 276 272 267 261 257
302 304 305 306 309 309 310 309 306 304 303 303 303 300 293 291 299 306 308 310 311 310 310 312 312 311 308 307 306 305 304 302 298 293 289 287 286 286 285 283 282 282 280 274 270 271 275 275 271 266 261 256
305 307 308 309 311 312 310 309 307 303 301 301 300 296 287 284 288 292 296 299 299 301 307 310 310 310 310 310 311 311 309 307 304 299 293 287 283 282 281 279 277 277 276 275 271 268 268 270 271 267 263 259
309 309 310 312 312 311 309 308 307 304 301 299 298 294 283 278 280 279 279 283 288 295 302 305 306 308 309 311 311 312 311 310 308 305 301 295 288 284 282 281 278 275 273 272 270 267 265 265 267 267 265 264
310 311 311 312 311 310 309 308 306 303 300 296 295 291 281 274 272 271 272 276 282 288 294 298 303 306 307 309 310 311 312 312 311 308 307 304 298 292 286 283 281 278 276 272 270 269 267 265 264 264 264 266
311 311 311 311 311 311 310 308 306 301 296 292 289 284 278 270 264 264 267 270 275 279 285 291 297 301 303 305 308 309 311 312 311 309 308 308 305 301 295 289 283 280 278 274 270 269 268 266 265 265 263 263
312 312 312 312 312 312 311 310 308 301 293 287 282 276 274 271 263 259 262 265 270 274 279 285 290 294 298 300 303 305 307 309 311 310 309 308 308 306 302 296 290 284 281 277 271 268 268 267 265 264 264 263
312 313 313 313 313 312 311 310 308 302 293 284 277 272 272 274 269 263 263 265 267 271 275 279 284 287 291 294 297 300 302 305 306 306 307 307 307 307 305 301 297 292 286 281 274 268 266 267 265 264 264 264
313 314 313 312 312 311 311 311 308 303 297 287 278 272 270 272 272 270 268 268 268 270 273 276 279 283 286 289 293 296 298 300 302 303 304 305 305 306 305 302 300 297 291 285 279 272 266 264 264 263 264 265
314 314 314 313 313 313 312 313 311 306 302 296 284 273 269 270 272 272 270 270 271 271 273 275 278 281 284 287 291 294 296 298 299 301 302 303 304 304 303 301 298 297 294 288 282 276 268 263 263 264 263 265
316 315 315 315 315 314 314 314 313 309 306 302 292 279 271 269 270 270 269 270 272 273 275 276 278 281 284 286 289 291 293 294 296 297 299 300 301 302 302 300 298 298 297 293 287 281 272 263 260 264 266 268
317 317 317 317 316 316 315 315 313 310 310 306 298 288 276 271 270 268 267 268 270 274 276 277 279 281 284 286 287 288 289 291 293 294 296 297 298 299 299 298 298 299 299 297 297 294 285 274 264 260 264 267
319 319 319 319 318 317 314 313 313 310 309 307 300 289 279 273 270 269 267 267 269 273 275 278 280 282 284 286 287 288 289 290 292 293 294 294 294 295 294 294 295 296 297 298 300 302 298 295 285 266 260 259
321 320 320 318 316 314 310 310 310 307 307 309 304 293 282 275 272 271 270 269 270 272 275 278 281 284 285 286 287 288 290 291 291 293 293 292 292 292 291 291 291 290 290 291 297 304 303 306 304 280 271 265
320 319 317 314 312 308 304 303 305 307 308 311 311 304 292 283 277 275 273 273 273 274 277 280 282 285 286 287 288 288 289 290 291 292 293 294 293 290 288 287 287 285 283 283 286 294 296 298 302 288 288 282
318 316 314 310 308 305 302 302 307 310 310 311 312 310 307 300 291 284 278 276 275 275 277 278 280 282 284 286 288 289 290 291 292 292 292 293 292 288 286 284 284 283 282 282 279 276 279 279 279 282 290 294
317 314 311 306 304 303 301 302 307 308 306 307 309 309 310 307 303 296 290 284 281 279 278 279 280 282 285 288 289 291 292 292 291 288 286 286 286 284 283 282 283 285 285 283 277 273 272 267 265 271 277 285
Height
1557 1556 1554 1552 1551 1549 1547 1545 1543 1541 1539 1538 1535 1533 1530 1529 1528 1526 1523 1520 1518 1516 1514 1514 1514 1514 1513 1512 1510 1503 1499 1498 1498 1498 1497 1498 1498 1498 1498 1499 1499 1500 1501 1502 1502 1503 1504 1504 1505 1507 1508 1509
1556 1555 1553 1551 1549 1548 1546 1544 1542 1540 1537 1536 1535 1533 1531 1529 1528 1527 1525 1522 1520 1517 1514 1512 1511 1512 1511 1510 1507 1502 1499 1498 1498 1498 1498 1498 1497 1497 1497 1497 1497 1498 1499 1499 1500 1501 1502 1502 1503 1504 1506 1507
1555 1553 1552 1550 1548 1546 1545 1543 1541 1539 1536 1534 1533 1533 1531 1529 1527 1526 1525 1522 1520 1517 1514 1512 1511 1511 1510 1507 1505 1502 1500 1498 1497 1498 1498 1498 1497 1496 1496 1495 1495 1496 1497 1497 1498 1498 1500 1500 1501 1502 1503 1504
1553 1552 1550 1548 1547 1545 1543 1541 1539 1537 1535 1533 1531 1530 1530 1528 1526 1525 1524 1522 1519 1517 1515 1513 1512 1512 1510 1506 1503 1501 1500 1498 1497 1497 1498 1498 1498 1497 1496 1494 1494 1494 1495 1495 1496 1496 1497 1498 1498 1499 1500 1501
1550 1549 1548 1546 1545 1543 1541 1539 1537 1536 1533 1531 1529 1527 1526 1526 1524 1523 1522 1521 1519 1518 1516 1515 1514 1513 1510 1505 1502 1500 1498 1498 1497 1497 1497 1497 1497 1497 1496 1494 1493 1493 1493 1493 1494 1494 1495 1495 1496 1497 1497 1499
1548 1547 1545 1544 1542 1541 1539 1537 1535 1533 1532 1529 1527 1525 1523 1522 1521 1521 1519 1519 1518 1517 1515 1515 1514 1511 1508 1504 1502 1500 1498 1497 1497 1497 1497 1496 1496 1496 1495 1494 1493 1492 1492 1492 1492 1492 1492 1493 1494 1494 1495 1497
1546 1544 1543 1541 1540 1539 1537 1535 1533 1531 1530 1528 1525 1523 1521 1519 1518 1517 1516 1515 1514 1514 1513 1511 1510 1508 1506 1503 1502 1500 1499 1497 1496 1496 1496 1496 1496 1496 1495 1494 1493 1492 1491 1491 1490 1490 1491 1491 1491 1492 1493 1494
1544 1542 1541 1539 1538 1536 1535 1533 1531 1530 1528 1526 1524 1522 1519 1517 1515 1513 1513 1512 1511 1510 1509 1508 1506 1505 1504 1503 1502 1501 1500 1499 1497 1496 1495 1495 1495 1495 1494 1493 1492 1492 1491 1490 1490 1489 1489 1489 1489 1490 1491 1492
1542 1540 1539 1537 1536 1535 1533 1531 1530 1528 1526 1524 1522 1520 1518 1516 1514 1512 1510 1509 1508 1507 1506 1505 1504 1503 1502 1501 1501 1500 1499 1499 1498 1496 1495 1493 1493 1493 1492 1492 1491 1491 1491 1490 1489 1489 1488 1487 1487 1487 1489 1490
1539 1538 1537 1536 1534 1533 1531 1530 1529 1527 1525 1523 1521 1519 1517 1515 1513 1511 1509 1507 1506 1505 1504 1503 1502 1501 1500 1499 1499 1499 1498 1498 1497 1496 1494 1493 1491 1490 1490 1490 1490 1490 1490 1489 1488 1488 1488 1487 1486 1486 1486 1487
1538 1536 1535 1534 1533 1531 1530 1529 1527 1526 1524 1522 1520 1518 1516 1514 1512 1510 1508 1506 1505 1503 1502 1501 1500 1499 1498 1497 1497 1497 1496 1496 1495 1493 1492 1491 1490 1489 1489 1489 1489 1489 1488 1488 1487 1487 1487 1487 1486 1485 1485 1485
1536 1534 1533 1532 1531 1530 1528 1527 1526 1524 1522 1520 1519 1517 1515 1513 1510 1508 1506 1505 1503 1502 1501 1500 1499 1498 1497 1496 1496 1495 1494 1493 1492 1491 1490 1489 1489 1488 1488 1488 1488 1488 1487 1486 1485 1485 1486 1486 1486 1485 1484 1484
1534 1533 1531 1530 1529 1528 1527 1525 1524 1522 1520 1519 1517 1516 1514 1511 1509 1507 1505 1503 1502 1501 1499 1498 1497 1496 1496 1495 1494 1493 1492 1491 1490 1489 1488 1487 1487 1487 1487 1487 1486 1486 1486 1484 1483 1483 1484 1484 1485 1484 1484 1484
1532 1531 1530 1528 1527 1526 1525 1523 1522 1520 1518 1517 1515 1514 1512 1510 1508 1505 1503 1502 1500 1499 1497 1496 1495 1494 1493 1493 1492 1491 1490 1489 1487 1486 1486 1486 1486 1485 1485 1485 1485 1484 1484 1483 1482 1481 1482 1482 1483 1483 1483 1483
1530 1529 1528 1527 1525 1524 1523 1521 1519 1517 1516 1514 1513 1511 1510 1508 1506 1504 1502 1500 1498 1496 1495 1494 1493 1492 1491 1490 1489 1488 1487 1486 1485 1484 1484 1484 1484 1484 1483 1483 1482 1482 1482 1482 1481 1481 1480 1480 1481 1482 1482 1482
1529 1527 1526 1524 1523 1521 1520 1519 1517 1515 1513 1511 1510 1509 1507 1505 1504 1502 1501 1499 1497 1494 1493 1492 1490 1489 1488 1487 1486 1486 1485 1484 1483 1482 1482 1482 1482 1482 1481 1481 1480 1480 1480 1480 1481 1480 1479 1479 1479 1479 1480 1481
1526 1524 1523 1521 1520 1518 1517 1515 1514 1513 1511 1509 1508 1506 1505 1503 1501 1500 1499 1496 1494 1493 1491 1490 1488 1487 1486 1485 1484 1483 1482 1482 1481 1481 1481 1481 1481 1480 1480 1479 1479 1478 1478 1478 1479 1479 1478 1478 1477 1477 1478 1479
1523 1521 1519 1518 1516 1515 1514 1512 1511 1510 1509 1507 1505 1504 1502 1500 1499 1497 1496 1493 1492 1491 1490 1489 1487 1485 1484 1483 1482 1481 1480 1480 1479 1479 1479 1478 1478 1478 1477 1476 1476 1476 1475 1476 1476 1476 1476 1476 1475 1475 1475 1476
1520 1518 1516 1515 1513 1512 1511 1509 1508 1507 1505 1504 1503 1502 1500 1498 1497 1495 1493 1491 1490 1490 1488 1487 1486 1484 1483 1482 1480 1479 1479 1478 1477 1477 1476 1476 1475 1474 1474 1473 1473 1473 1472 1473 1473 1473 1473 1473 1472 1472 1472 1473
1517 1515 1513 1512 1510 1509 1507 1506 1504 1503 1502 1501 1501 1499 1498 1496 1494 1492 1491 1490 1488 1487 1486 1485 1484 1483 1482 1480 1479 1478 1477 1476 1475 1474 1473 1473 1472 1471 1470 1469 1469 1469 1469 1469 1469 1469 1470 1470 1469 1468 1469 1470
1514 1512 1510 1508 1507 1505 1504 1502 1500 1500 1498 1498 1498 1497 1495 1493 1491 1490 1488 1487 1486 1485 1484 1484 1482 1481 1480 1479 1478 1477 1476 1475 1474 1473 1471 1471 1470 1469 1468 1467 1466 1466 1465 1465 1465 1465 1466 1466 1466 1466 1466 1467
1511 1510 1507 1505 1503 1501 1500 1499 1497 1496 1495 1494 1494 1493 1492 1489 1487 1487 1486 1485 1484 1484 1483 1482 1481 1480 1479 1478 1477 1476 1475 1474 1473 1472 1470 1469 1469 1468 1467 1466 1465 1464 1463 1462 1461 1462 1462 1463 1463 1463 1464 1465
1509 1507 1504 1502 1499 1497 1496 1495 1494 1492 1491 1490 1489 1489 1488 1485 1484 1484 1484 1483 1482 1481 1481 1480 1479 1478 1477 1476 1475 1474 1473 1473 1472 1471 1470 1468 1467 1467 1466 1465 1464 1463 1461 1460 1458 1458 1459 1460 1460 1461 1462 1463
1505 1503 1500 1498 1495 1493 1491 1490 1490 1488 1487 1486 1485 1484 1483 1482 1481 1481 1481 1480 1480 1479 1478 1477 1477 1476 1475 1474 1474 1473 1472 1471 1470 1469 1468 1467 1466 1465 1464 1463 1463 1462 1460 1458 1456 1455 1456 1457 1458 1458 1460 1461
1502 1499 1496 1494 1492 1489 1487 1486 1485 1484 1483 1481 1480 1480 1480 1479 1478 1478 1478 1478 1477 1477 1476 1475 1474 1474 1473 1473 1472 1471 1470 1469 1468 1468 1467 1466 1465 1463 1462 1461 1461 1460 1459 1456 1454 1452 1452 1454 1456 1457 1458 1459
1499 1496 1494 1491 1489 1487 1485 1484 1483 1481 1480 1478 1477 1477 1476 1476 1475 1475 1475 1475 1474 1474 1473 1472 1472 1472 1471 1470 1470 1469 1468 1467 1466 1466 1465 1464 1463 1462 1461 1459 1459 1459 1458 1456 1454 1452 1450 1450 1453 1455 1456 1457
1496 1494 1492 1489 1487 1485 1483 1482 1481 1479 1478 1476 1475 1474 1474 1473 1472 1472 1472 1472 1471 1471 1470 1470 1469 1469 1468 1468 1467 1466 1465 1465 1464 1463 1462 1461 1460 1459 1459 1458 1458 1458 1458 1456 1456 1454 1452 1451 1451 1451 1452 1453
1494 1491 1489 1487 1486 1484 1482 1480 1479 1478 1476 1475 1473 1472 1472 1471 1470 1469 1469 1469 1469 1468 1467 1467 1467 1466 1465 1465 1464 1463 1462 1461 1461 1460 1459 1458 1457 1457 1456 1455 1455 1456 1457 1456 1456 1455 1454 1454 1453 1451 1449 1449
1491 1489 1487 1486 1484 1483 1481 1479 1478 1476 1474 1473 1472 1470 1470 1469 1468 1467 1467 1466 1466 1465 1465 1465 1464 1463 1462 1461 1461 1460 1459 1458 1458 1457 1456 1456 1455 1455 1454 1453 1453 1453 1454 1455 1456 1456 1455 1455 1454 1452 1450 1447
1489 1487 1485 1483 1482 1481 1479 1477 1476 1474 1472 1471 1470 1469 1468 1467 1466 1465 1464 1464 1464 1463 1463 1462 1461 1460 1459 1459 1458 1457 1456 1456 1456 1455 1454 1454 1453 1453 1453 1451 1451 1450 1451 1453 1454 1454 1454 1455 1454 1452 1452 1450
1487 1484 1483 1481 1480 1478 1477 1475 1473 1472 1471 1469 1468 1467 1466 1465 1464 1463 1462 1462 1461 1461 1460 1460 1459 1458 1457 1456 1456 1455 1454 1453 1453 1453 1452 1452 1451 1451 1451 1450 1449 1449 1449 1450 1450 1452 1452 1452 1453 1452 1452 1452